| time (UTC) | temp F | wind direction | speed knots | gust knots | rain 1hr in | rain 24hr in | rain mn in | humidity % | barometer mb |
| 20260505063030 | 56 | 175 | 4.3 | 13.0 | 0.00 | 0.00 | 0.00 | 90 | 1010.2 |
| 20260505061527 | 56 | 257 | 7.0 | 13.9 | 0.00 | 0.00 | 0.00 | 91 | 1010.2 |
| 20260505060037 | 55 | 242 | 4.3 | 11.3 | 0.00 | 0.00 | 0.00 | 91 | 1010.3 |
| 20260505054521 | 54 | 190 | 7.0 | 14.8 | 0.00 | 0.00 | 0.00 | 92 | 1010.5 |
| 20260505053018 | 53 | 233 | 7.0 | 13.0 | 0.00 | 0.00 | 0.00 | 92 | 1010.5 |
| 20260505051523 | 53 | 230 | 7.8 | 13.9 | 0.00 | 0.00 | 0.00 | 91 | 1010.8 |
| 20260505041508 | 53 | 248 | 5.2 | 12.2 | 0.00 | 0.00 | 0.00 | 92 | 1011.0 |
| 20260505040003 | 53 | 219 | 4.3 | 10.4 | 0.00 | 0.00 | 0.00 | 92 | 1011.1 |
| 20260505034502 | 53 | 184 | 5.2 | 9.6 | 0.00 | 0.00 | 0.00 | 92 | 1011.1 |
| 20260505033002 | 53 | 210 | 4.3 | 10.4 | 0.00 | 0.00 | 0.00 | 92 | 1011.1 |
| 20260505031502 | 53 | 248 | 5.2 | 12.2 | 0.00 | 0.00 | 0.00 | 92 | 1011.3 |
| 20260505030100 | 53 | 221 | 6.1 | 10.4 | 0.00 | 0.00 | 0.00 | 91 | 1011.2 |
| 20260505024608 | 54 | 238 | 6.1 | 12.2 | 0.00 | 0.00 | 0.00 | 90 | 1011.3 |
| 20260505023104 | 54 | 198 | 5.2 | 13.9 | 0.00 | 0.00 | 0.00 | 90 | 1011.3 |
| 20260505021559 | 55 | 191 | 7.0 | 14.8 | 0.00 | 0.00 | 0.00 | 89 | 1011.5 |
| 20260505020058 | 55 | 248 | 8.7 | 14.8 | 0.00 | 0.00 | 0.00 | 87 | 1011.5 |
| 20260505014558 | 55 | 263 | 6.1 | 14.8 | 0.00 | 0.00 | 0.00 | 86 | 1011.2 |
| 20260505013125 | 56 | 203 | 6.1 | 14.8 | 0.00 | 0.00 | 0.00 | 85 | 1011.2 |
| 20260505011618 | 56 | 238 | 7.0 | 13.0 | 0.00 | 0.00 | 0.00 | 85 | 1011.1 |
| 20260505010110 | 55 | 222 | 4.3 | 10.4 | 0.00 | 0.00 | 0.00 | 87 | 1010.9 |
| 20260505004556 | 55 | 238 | 4.3 | 11.3 | 0.00 | 0.00 | 0.00 | 87 | 1010.8 |
| 20260505003102 | 54 | 236 | 5.2 | 13.9 | 0.00 | 0.00 | 0.00 | 88 | 1010.6 |
| 20260505001555 | 54 | 225 | 6.1 | 13.9 | 0.00 | 0.00 | 0.00 | 89 | 1010.5 |
| 20260505000105 | 54 | 240 | 6.1 | 13.0 | 0.00 | 0.00 | 0.00 | 89 | 1010.4 |
| 20260504234554 | 54 | 194 | 7.0 | 14.8 | 0.00 | 0.00 | 0.00 | 89 | 1010.3 |
| 20260504233101 | 54 | 214 | 6.1 | 13.0 | 0.00 | 0.00 | 0.00 | 87 | 1010.3 |
| 20260504231553 | 55 | 232 | 7.8 | 14.8 | 0.00 | 0.00 | 0.00 | 86 | 1010.2 |
| 20260504230059 | 55 | 148 | 7.8 | 16.5 | 0.00 | 0.00 | 0.00 | 86 | 1010.1 |
| 20260504224551 | 55 | 198 | 7.8 | 14.8 | 0.00 | 0.00 | 0.00 | 85 | 1010.1 |
| 20260504223058 | 56 | 200 | 7.8 | 14.8 | 0.00 | 0.00 | 0.00 | 85 | 1010.1 |
| 20260504221550 | 56 | 230 | 7.8 | 17.4 | 0.00 | 0.00 | 0.00 | 84 | 1010.0 |
| 20260504220049 | 56 | 212 | 11.3 | 17.4 | 0.00 | 0.00 | 0.00 | 85 | 1010.0 |
| 20260504214559 | 56 | 266 | 9.6 | 21.7 | 0.00 | 0.00 | 0.00 | 84 | 1009.9 |
| 20260504213056 | 56 | 219 | 7.8 | 16.5 | 0.00 | 0.00 | 0.00 | 83 | 1010.0 |
| 20260504211552 | 56 | 206 | 10.4 | 18.2 | 0.00 | 0.00 | 0.00 | 83 | 1010.0 |
| 20260504210146 | 56 | 194 | 9.6 | 16.5 | 0.00 | 0.00 | 0.00 | 83 | 1010.1 |
| 20260504204545 | 56 | 182 | 12.2 | 18.2 | 0.00 | 0.00 | 0.00 | 83 | 1010.1 |
| 20260504203043 | 56 | 197 | 9.6 | 17.4 | 0.00 | 0.00 | 0.00 | 84 | 1010.2 |
| 20260504201557 | 56 | 204 | 9.6 | 17.4 | 0.00 | 0.00 | 0.00 | 83 | 1010.3 |
| 20260504200042 | 56 | 243 | 11.3 | 19.1 | 0.00 | 0.00 | 0.00 | 83 | 1010.4 |
| 20260504194546 | 56 | 219 | 11.3 | 17.4 | 0.00 | 0.00 | 0.00 | 82 | 1010.5 |
| 20260504193037 | 57 | 233 | 10.4 | 18.2 | 0.00 | 0.00 | 0.00 | 81 | 1010.6 |
| 20260504191539 | 57 | 160 | 9.6 | 18.2 | 0.00 | 0.00 | 0.00 | 80 | 1010.8 |
| 20260504190030 | 57 | 157 | 10.4 | 17.4 | 0.00 | 0.00 | 0.00 | 80 | 1011.0 |
| 20260504184533 | 58 | 192 | 11.3 | 17.4 | 0.00 | 0.00 | 0.00 | 78 | 1011.3 |
| 20260504183027 | 58 | 218 | 11.3 | 17.4 | 0.00 | 0.00 | 0.00 | 78 | 1011.4 |
| 20260504181531 | 58 | 177 | 8.7 | 15.6 | 0.00 | 0.00 | 0.00 | 79 | 1011.4 |
| 20260504180024 | 57 | 203 | 10.4 | 20.0 | 0.00 | 0.00 | 0.00 | 79 | 1011.8 |
| 20260504174522 | 57 | 179 | 9.6 | 17.4 | 0.00 | 0.00 | 0.00 | 80 | 1012.0 |
| 20260504173021 | 57 | 205 | 9.6 | 17.4 | 0.00 | 0.00 | 0.00 | 80 | 1012.0 |
| 20260504171519 | 57 | 232 | 10.4 | 17.4 | 0.00 | 0.00 | 0.00 | 81 | 1012.2 |
| 20260504140111 | 56 | 168 | 7.8 | 15.6 | 0.00 | 0.00 | 0.00 | 79 | 1013.7 |
| 20260504081519 | 52 | 266 | 8.7 | 13.0 | 0.00 | 0.00 | 0.00 | 75 | 1014.6 |